Location: NJAA Observatory
(40.6819°N, 74.8979°W)
Time: 12:55:35
(UTC-04:00)

Cosmos 2263 Rocket - Visible Passes

Search period start: 29 August 2015 00:00
Search period end: 08 September 2015 00:00
Orbit: 822 x 850 km, 71.0° (Epoch: 28 August)

Date Brightness Start Highest point End Pass type
(mag) Time Alt. Az. Time Alt. Az. Time Alt. Az.
29 Aug 4.4 00:57:16 10° N 01:00:20 20° NE 01:00:20 20° NE visible
29 Aug 4.2 02:40:19 10° NNW 02:41:59 20° NW 02:41:59 20° NW visible
30 Aug 4.5 00:40:43 10° N 00:43:29 18° NNE 00:43:29 18° NNE visible
30 Aug 4.3 02:23:38 10° NNW 02:25:08 19° NNW 02:25:08 19° NNW visible
31 Aug 4.5 00:24:12 10° N 00:26:41 17° NNE 00:26:41 17° NNE visible
31 Aug 4.4 02:06:56 10° NNW 02:08:20 18° NNW 02:08:20 18° NNW visible
01 Sep 4.6 00:07:40 10° N 00:09:56 16° NNE 00:09:56 16° NNE visible
01 Sep 4.5 01:50:16 10° NNW 01:51:36 18° NNW 01:51:36 18° NNW visible
01 Sep 4.6 23:51:10 10° N 23:53:15 15° NNE 23:53:15 15° NNE visible
02 Sep 4.5 01:33:35 10° NNW 01:34:54 18° NNW 01:34:54 18° NNW visible
02 Sep 4.6 23:34:42 10° NNE 23:36:35 14° NNE 23:36:35 14° NNE visible
03 Sep 4.6 01:16:55 10° NNW 01:18:15 18° NNW 01:18:15 18° NNW visible
03 Sep 4.6 23:18:15 10° NNE 23:19:58 13° NNE 23:19:58 13° NNE visible
04 Sep 4.6 01:00:16 10° NNW 01:01:39 18° NNW 01:01:39 18° NNW visible
04 Sep 4.6 23:01:50 10° NNE 23:03:23 12° NE 23:03:23 12° NE visible
05 Sep 4.6 00:43:36 10° NNW 00:45:04 19° NNW 00:45:04 19° NNW visible
05 Sep 4.6 22:45:29 10° NNE 22:46:50 12° NE 22:46:50 12° NE visible
06 Sep 4.5 00:26:57 10° NNW 00:28:31 19° NNW 00:28:31 19° NNW visible
06 Sep 4.6 22:29:15 10° NNE 22:30:19 11° NE 22:30:19 11° NE visible
07 Sep 4.5 00:10:18 10° NNW 00:11:59 20° NNW 00:11:59 20° NNW visible
07 Sep 4.6 22:13:19 10° NE 22:13:49 10° NE 22:13:49 10° NE visible
